sat.trackr.live / text

‹ back to catalog

STARLINK-3329

NORAD 50827 · 2022-001AA

PAYLOAD ACTIVE UNKNOWN

§ Identity

Operator
Country
US
Launch date
2022-01-06
Launch site
AFETR
Launch vehicle
Mass (kg)
RCS (m²)

Purposes: comms

External: N2YO · Heavens-Above · Gunter

§ Orbital elements

Epoch: 2026-09-19T00:17:32.752896Z

Period
93.85 min
Inclination
53.1615°
Eccentricity
0.0001154
Mean motion
15.34386182 rev/d
Perigee alt
462.0 km
Apogee alt
463.5 km
Semi-major
6,840.9 km
B*
1.4072e-5
RAAN
8.3286°
Arg perigee
87.1325°
Mean anomaly
272.9810°
Rev number
25,976

§ Raw data

STARLINK-33291 50827U 22001AA  26262.01218464  .00000099  00000+0  14072-4 0  99962 50827  53.1615   8.3286 0001154  87.1325 272.9810 15.34386182259768

JSON: /api/v1/satellites/50827 · /tle

For live sub-satellite position, see the globe view (requires WebGL).

§ Visibility from observer

Set your observer location to see the next 7 days of passes ≥ 10°. The values pass through the URL so the page stays shareable.

No JS? Fill the form by hand. The geolocation button needs JavaScript.